Powrót do katalogu

STARLINK-32595

AktywnyŁącznośćVLEO
NORAD 62037·PAYLOAD·🇺🇸 United States

Wystrzelony Nov 21, 2024 z Cape Canaveral Space Force Station

Loading…

Następne Przeloty (najbliższe 24 godziny)

TLE

ŚwieżeSource: CelesTrak SupGP

Epoka: Sep 15, 2026, 02:29 UTC

1 62037C 24216F   26258.10395833  .00001624  00000+0  58790-4 0  2581
2 62037  43.0003 273.8100 0001661 271.9245 349.8877 15.27588047    19

Śledź STARLINK-32595 w czasie rzeczywistym z AllMySat

Download on the App Store